Погода Ефимовская

Погода Ефимовская : погода сейчас, прогноз погоды и архив. Всё, что Вы хотите узнать о погоде Ефимовская!

Поиск расширенной информации на нашем сайте:

Другие новости

Новости СМИ2

Главная страница сайта

Новости сайта

03.07.2017

Напоминаем, что на нашем специализированном сайте Метеоцентр.Азия вы можете получить высокодетализированные автоматические прогнозы погоды по пунктам России, СНГ и мира в авиационном формате (включающие направление и скорость ветра, видимость, явления погоды, количество и форму облачности, нижнюю и верхнюю границу облачности).


Погода Ефимовская - сегодня

Время (UTC), дата Ветер
(°,м/с) 
Видим.   Явления Облачность Т
(°С)
Тd
(°С)
f(%) Тe
(°С)
Pmin
(гПа)
dP
(гПа)
Po
(мм)
O2
(г/м3)
Тmin Tmax R s Состояние
почвы
18 15.04.18 тихо ()   20000 м    ясно 
+4.5 -3.7 55 +5  1019.7  -0.1  748  297    +18       
21 15.04.18 тихо ()   н/о    н/о 
-0.7 -4 78 -1  1020.2  0.1  749  303           
00 16.04.18 тихо ()   н/о    н/о 
-2.7 -4.5 87 -3  1019.9  -0.4  748  305           
03 16.04.18 тихо ()   н/о    н/о 
-3.1 -3.9 94 -3  1019.2  -0.7  748  305  -3.5         
09 16.04.18 270 (З) н/о    н/о 
+16.3 -3.8 25 +17  1017  -0.2  747  284           
12 16.04.18 300 (СЗ) н/о    н/о 
+17.1 -3.2 25 +18  1016.4  -0.6  747  283           
15 16.04.18 250 (З) н/о    н/о 
+15.2 +1.3 39 +16  1015.6  -0.9  746  285           
00 17.04.18 тихо ()   н/о    н/о 
+3.1 +2.3 94 +3  1017  0.5  746  297           
03 17.04.18 тихо ()   н/о    н/о 
+2.2 +1.7 96 +2  1016.7  -0.3  746  298  +1.6         
09 17.04.18 140 (ЮВ) н/о    н/о 
+11.1 +1.2 50 +11  1016  -0.3  746  289           
12 17.04.18 110 (В) н/о    н/о 
+14.6 +3.9 49 +15  1014.6  -1.1  745  284           
15 17.04.18 110 (В) н/о    н/о 
+13.8 +3 48 +14  1012.9  -1.7  744  285           
21 17.04.18 100 (В) н/о    н/о 
+6.4 +5.3 93 +5  1011.3  -0.9  742  291           
00 18.04.18 080 (В) н/о    н/о 
+5.4 +4.8 96 +4  1009.3  -2  741  292           
06 18.04.18 050 (СВ) 3{10}  4000 м  слаб. дождь  10/10 360 м 
[Frnb|Ns]
+5.4 +4.9 97 +4  1008.5  740  292  +5.3    19  мокрый или
старый снег
10-40% 
09 18.04.18 050 (СВ) н/о    н/о 
+6.7 +5.6 93 +6  1009.8  1.4  741  291           
12 18.04.18 040 (СВ) н/о    н/о 
+8.7 +2.8 66 +8  1011.3  1.5  743  289           
15 18.04.18 060 (СВ) н/о    н/о 
+9.1 +2.9 65 +10  1012.7  1.4  744  289           
21 18.04.18 350 (С) н/о    н/о 
+6.1 +0.8 69 +7  1014.1  0.4  744  293           
00 19.04.18 320 (СЗ) н/о    н/о 
+4 +3.2 95 +5  1013.9  0.4  744  295           
03 19.04.18 330 (СЗ) н/о    н/о 
+2.8 +2.5 98 +4  1013.3  -0.6  744  296  +2.8         
09 19.04.18 010 (С) н/о    н/о 
+13.3 -2.6 33 +13  1013.7  0.9  745  286           
12 19.04.18 010 (С) н/о    н/о 
+14.6 -2.6 30 +15  1013.9  0.4  745  285           
15 19.04.18 360 (С) 3{11}  н/о    н/о 
+14.5 -2.9 30 +15  1014.5  0.6  745  285           
21 19.04.18 тихо ()   н/о    н/о 
+4.2 +0.1 75 +4  1017.2  0.4  747  296           
Время (UTC), дата Ветер
(°,м/с) 
Видим.   Явления Облачность Т
(°С)
Тd
(°С)
f(%) Тe
(°С)
Pmin
(гПа)
dP
(гПа)
Po
(мм)
O2
(г/м3)
Тmin Tmax R s Состояние
почвы

Для получения пояснительной информации подведите курсор к названию столбца.

ПОГОДА Ефимовская - архив

Всё, что Вы хотите узнать о погоде Ефимовская - удобно и подробно!

Выберите нужную дату (начиная с 1 января 2015* года) и нажмите кнопку "Найти".
Будут отображены архивные сводки погоды по пункту Ефимовская, начиная с указанной даты.


Отображать данные в формате CSV (для использования в таблицах Excel)


Внимание! Наш архив погоды предназначен исключительно для личного некоммерческого использования в познавательных целях. Если Вам необходимы официальные справки о состоянии погоды (для производственных, юридических, коммерческих и т.п. целей), обращайтесь в органы Росгидромета.

*Примечание: данная дата относится к архиву по метеостанциям СССР (Россия, СНГ, Балтия).
Архив по метеостанциям Зарубежной Европы и Азии (кроме Китая) хранится 10 дней, по другим регионам земного шара (Китай, Африка, Америка, Австралия, Океания) - 1 день.

Ефимовская - район местоположения метеостанции


Название, широта, долгота, высота метеостанции:
Ефимовская 59.5°ш. 34.7°д. 176 м над ур. моря [Российская Федерация]

Дополнительная информация

В oтличие oт бoльшинства пoгoдных сайтoв мы публикуем пoдрoбную метеoинфoрмацию в детальнoм прoфессиoнальнoм фoрмате.

Характеристики температуры и влажнoсти вoздуха измеряются на высoте 2 м в тени вдали oт зданий и деревьев.
Скoрoсть ветра измеряется на высoте 10 м (на урoвне рoста челoвека скoрoсть ветра ниже в 1.5-2 раза). Если метеoстанция нахoдится в гoрoде или в лесу, тo скoрoсть ветра занижена на 2-4 м/с пo сравнению с oткрытым местoм. Скoрoсть ветра над акватoриями крупных рек и oзёр, а также на вершинах хoлмoв на 2-5 м/с выше, чем в oбычных услoвиях.
Атмoсфернoе давление в разных тoчках местнoсти мoжет значительнo oтличаться oт давления на метеoстанции, в зависимoсти oт услoвий рельефа (при пoдъёме на 10 м давление пoнижается примернo на 1 мм рт.ст.).